Friday, October 31, 2014
11:31 UTC
  |  Log In   |  Register Free
Airport Search:

Madison Municipal Airport
(KIMS)

Madison Municipal Airport Diagram
No Airport Diagram Available

FAA data valid effective September 18, 2014 - November 13, 2014 (unless otherwise noted).

 
 
 
 
 
 
 
 
 
 
 
 
 
 

Current Aviation Weather for Madison Municipal Airport (KIMS)

METAR data is unavailable for IMS. The nearest METAR location is at KJVY (26.9 nm SW from IMS).

The most recent METAR observation for KJVY was updated at: 1115
METAR Summary (Translated METAR)
KJVY
030145Z 34005KT 10SM CLR 00/M11 A3027 RMK LAST
(26.9 nm SW from KIMS)
KLOU
311053Z 31004KT 7SM -RA OVC034 08/07 A3001 RMK AO2 SLP162 P0001 T00830067
(33.3 nm SW from KIMS)
TAF
No TAF information found within 50 nm of KLOU
  Airport Weather Conditions for KIMS

Current weather conditions are
not available for IMS


The nearest NOAA weather station
is at LOU, (33.3 nm SW from IMS)
  
 Current Weather at LOU
47° F
Light Rain
North winds at 0.0 mph
LOU NOAA Radar

Pressure: 30.00 in
Humidity: 90%
Wind: Calm
Dew Point: 44.1°F
Visibility: 7.00 mi


Airport Weather Forecast for KIMS

Translated METAR and TAF for KLOU
Translated METAR for KLOU (1126 UTC 31 October 2014)
found at http://aviationweather.gov/adds/metars/
 
METAR text: KLOU 311053Z 31004KT 7SM -RA OVC034 08/07 A3001 RMK AO2 SLP162 P0001 T00830067
Conditions at: KLOU (LOUISVILLE/BOWMN, KY, US) observed 1053 UTC 31 October 2014
Temperature: 8.3°C (47°F)
Dewpoint: 6.7°C (44°F) [RH = 90%]
Pressure (altimeter): 30.01 inches Hg (1016.3 mb)
[Sea-level pressure: 1016.2 mb]
Winds: from the NW (310 degrees) at 5 MPH (4 knots; 2.1 m/s)
Visibility: 7 miles (11 km)
Ceiling: 3400 feet AGL
Clouds: overcast cloud deck at 3400 feet AGL
Weather: -RA  (light rain)
Translated TAF for KLOU

There is no translated TAF available for this airport

Find All Airport Services Find A Hotel Find A Rental Car Find A Golf Course Find A Restaurant $100 Hamburger



FBO's on the Field
FBO Company Facility Photos Services Transportation Aviation Fuel Prices: Prices include tax
Catering Weather Repair Courtesy Rental Type 100LL JetA JetA+ MOGAS 8087
 
City of Madison

This FBO has not yet been rated
FS:Phillips 66
Last Updated: Oct-14
Login to update fuel prices
SS:
Contact City of MadisonMore FBO Information
 
Add another FBO Facility Photos Catering Weather Repair Courtesy Rental Type 100LL JetA JetA+ MOGAS 8087
Services Transportation Aviation Fuel Prices: Prices include tax


model-print
model-print
model-print
model-print